Regional Weather Roundup
Issued by NWS

Home | Current Version | Previous Version | Graphics & Text | Print | Product List | Glossary On
Versions: 1 2 3 4 5 6 7 8 9 10 11 12 13 14 15 16 17 18 19 20 21 22 23 24 25 26 27 28 29 30 31 32 33 34 35 36 37 38 39 40 41 42 43 44 45 46 47 48 49 50
811
ASUS43 KLMK 251010
RWRKY
KENTUCKY REGIONAL WEATHER ROUNDUP
NATIONAL WEATHER SERVICE LOUISVILLE KY
600 AM EDT THU AUG 25 2016

NOTE "FAIR" INDICATES FEW OR NO CLOUDS BELOW 12,000 FEET
WITH NO SIGNIFICANT WEATHER AND/OR OBSTRUCTIONS TO VISIBILITY.

KYZ001>023-026-027-061>063-070>075-251100-
WESTERN AND SOUTH CENTRAL KENTUCKY

CITY           SKY/WX    TMP DP  RH WIND       PRES   REMARKS
PADUCAH        CLEAR     73  71  93 CALM      30.08R FOG
HENDERSON      CLEAR     72  68  88 CALM      30.07S
OWENSBORO      CLEAR     74  74 100 S3        30.10R
HOPKINSVILLE   CLEAR     76  73  92 CALM      30.11R
BOWLING GREEN  CLEAR     75  72  90 CALM      30.12S
GLASGOW        CLEAR     71  71 100 CALM      30.13S
$$

KYZ024-025-028>034-038-045-046-053-251100-
NORTH CENTRAL KENTUCKY

CITY           SKY/WX    TMP DP  RH WIND       PRES   REMARKS
LOUISVILLE/SDF PTCLDY    79  73  82 SW7       30.09S
LOUISVILLE/LOU CLEAR     79  72  79 SW6       30.10S
FORT KNOX      CLEAR     73  72  96 S5        30.10S
$$

KYZ035>037-039>044-047>052-055>060-089>105-251100-
NORTHEAST KENTUCKY

CITY           SKY/WX    TMP DP  RH WIND       PRES   REMARKS
LEXINGTON      CLEAR     74  70  87 S8        30.13S
COVINGTON      PTCLDY    75  74  96 SW6       30.08F
FRANKFORT      CLEAR     75  71  87 SW8       30.11R
$$

KYZ054-064>069-076>088-106>120-251100-
SOUTHEAST KENTUCKY

CITY           SKY/WX    TMP DP  RH WIND       PRES   REMARKS
JACKSON        CLEAR     72  69  90 VRB3      30.18R
LONDON         CLEAR     70  67  90 CALM      30.18S
SOMERSET       CLEAR     70  70 100 CALM      30.18R
MIDDLESBORO    PTCLDY    67  67 100 CALM      30.21R
MONTICELLO     SUNNY    N/A N/A N/A W12       30.18S
$$





USA.gov is the U.S. government's official web portal to all federal, state and local government web resources and services.